• In United States
  • List of Countries
  • For 7 days
  • Water Temperature
  • Satellite Maps
  • Weather Map
  • Weather Widgets
  • user-avatar
    Login

    Hourly Weather Córdoba

    Today, 18 July, Wednesday

    Time Temperature Precipitation Wind Pressure Humidity
    00:00 +10°C° 0 mm 2 mps 723 mmHg 85%
    01:00 +11°C° 0 mm 1 mps 723 mmHg 86%
    02:00 +11°C° 0 mm 1 mps 723 mmHg 86%
    03:00 +11°C° 0 mm 1 mps 723 mmHg 87%
    04:00 +11°C° 0 mm 1 mps 722 mmHg 87%
    05:00 +10°C° 0 mm 1 mps 722 mmHg 88%
    06:00 +10°C° 0 mm 2 mps 722 mmHg 88%
    07:00 +10°C° 0 mm 2 mps 723 mmHg 88%
    08:00 +9°C° 0 mm 2 mps 722 mmHg 86%
    09:00 +10°C° 0 mm 2 mps 723 mmHg 81%
    10:00 +13°C° 0 mm 2 mps 723 mmHg 77%
    11:00 +13°C° 0 mm 3 mps 723 mmHg 72%
    12:00 +14°C° 0 mm 3 mps 722 mmHg 68%
    13:00 +17°C° 0 mm 3 mps 722 mmHg 63%
    14:00 +18°C° 0 mm 2 mps 722 mmHg 59%
    15:00 +17°C° 0 mm 2 mps 721 mmHg 62%
    16:00 +17°C° 0 mm 2 mps 721 mmHg 65%
    17:00 +16°C° 0 mm 2 mps 721 mmHg 68%
    18:00 +14°C° 0 mm 3 mps 721 mmHg 73%
    19:00 +13°C° 0 mm 3 mps 722 mmHg 78%
    20:00 +12°C° 0 mm 3 mps 722 mmHg 83%
    21:00 +11°C° 0 mm 3 mps 723 mmHg 81%
    22:00 +11°C° 0 mm 4 mps 723 mmHg 80%
    23:00 +10°C° 0 mm 4 mps 723 mmHg 79%

    Tomorrow, 19 July, Thursday

    Time Temperature Precipitation Wind Pressure Humidity
    00:00 +10°C° 0 mm 4 mps 723 mmHg 78%
    01:00 +10°C° 0 mm 4 mps 723 mmHg 77%
    02:00 +8°C° 0 mm 4 mps 723 mmHg 77%
    03:00 +8°C° 0 mm 4 mps 723 mmHg 76%
    04:00 +8°C° 0 mm 4 mps 723 mmHg 74%
    05:00 +9°C° 0 mm 3 mps 723 mmHg 73%
    06:00 +8°C° 0 mm 4 mps 723 mmHg 72%
    07:00 +8°C° 0 mm 4 mps 723 mmHg 71%
    08:00 +7°C° 0 mm 4 mps 723 mmHg 70%
    09:00 +8°C° 0 mm 5 mps 724 mmHg 66%
    10:00 +9°C° 0 mm 5 mps 724 mmHg 61%
    11:00 +10°C° 0 mm 5 mps 725 mmHg 57%
    12:00 +10°C° 0 mm 5 mps 724 mmHg 55%
    13:00 +12°C° 0 mm 5 mps 724 mmHg 53%
    14:00 +12°C° 0 mm 5 mps 723 mmHg 51%
    15:00 +12°C° 0 mm 5 mps 724 mmHg 50%
    16:00 +12°C° 0 mm 5 mps 724 mmHg 49%
    17:00 +10°C° 0 mm 5 mps 724 mmHg 49%
    18:00 +10°C° 0 mm 4 mps 725 mmHg 52%
    19:00 +9°C° 0 mm 3 mps 725 mmHg 55%
    20:00 +8°C° 0 mm 3 mps 726 mmHg 59%
    21:00 +8°C° 0 mm 3 mps 726 mmHg 61%
    22:00 +7°C° 0 mm 3 mps 727 mmHg 63%
    23:00 +6°C° 0 mm 4 mps 727 mmHg 65%

    Day after tomorrow, 20 July, Friday

    Time Temperature Precipitation Wind Pressure Humidity
    00:00 +5°C° 0 mm 4 mps 727 mmHg 64%
    01:00 +5°C° 0 mm 4 mps 727 mmHg 64%
    02:00 +5°C° 0 mm 4 mps 727 mmHg 64%
    03:00 +5°C° 0 mm 4 mps 727 mmHg 63%
    04:00 +4°C° 0 mm 4 mps 727 mmHg 62%
    05:00 +4°C° 0 mm 4 mps 727 mmHg 61%
    06:00 +4°C° 0 mm 4 mps 728 mmHg 59%
    07:00 +5°C° 0 mm 4 mps 729 mmHg 58%
    08:00 +5°C° 0 mm 4 mps 729 mmHg 56%
    09:00 +7°C° 0 mm 5 mps 730 mmHg 48%
    10:00 +9°C° 0 mm 6 mps 730 mmHg 40%
    11:00 +11°C° 0 mm 7 mps 731 mmHg 32%
    12:00 +12°C° 0 mm 7 mps 730 mmHg 29%
    13:00 +13°C° 0 mm 6 mps 730 mmHg 27%
    14:00 +14°C° 0 mm 6 mps 729 mmHg 25%
    15:00 +14°C° 0 mm 4 mps 729 mmHg 26%
    16:00 +13°C° 0 mm 3 mps 729 mmHg 27%
    17:00 +13°C° 0 mm 2 mps 728 mmHg 28%
    18:00 +12°C° 0 mm 2 mps 729 mmHg 31%
    19:00 +10°C° 0 mm 1 mps 729 mmHg 34%
    20:00 +9°C° 0 mm 1 mps 729 mmHg 37%
    21:00 +8°C° 0 mm 1 mps 729 mmHg 38%
    22:00 +8°C° 0 mm 1 mps 730 mmHg 39%
    23:00 +8°C° 0 mm 1 mps 730 mmHg 40%

    21 July, Saturday

    Time Temperature Precipitation Wind Pressure Humidity
    00:00 +6°C° 0 mm 2 mps 729 mmHg 41%
    01:00 +6°C° 0 mm 2 mps 729 mmHg 42%
    02:00 +6°C° 0 mm 2 mps 729 mmHg 43%
    03:00 +6°C° 0 mm 2 mps 728 mmHg 43%
    04:00 +6°C° 0 mm 2 mps 728 mmHg 43%
    05:00 +6°C° 0 mm 2 mps 727 mmHg 43%
    06:00 +6°C° 0 mm 2 mps 727 mmHg 42%
    07:00 +5°C° 0 mm 3 mps 728 mmHg 41%
    08:00 +7°C° 0 mm 3 mps 728 mmHg 40%
    09:00 +9°C° 0 mm 3 mps 727 mmHg 35%
    10:00 +12°C° 0 mm 4 mps 727 mmHg 30%
    11:00 +15°C° 0 mm 5 mps 727 mmHg 25%
    12:00 +16°C° 0 mm 6 mps 726 mmHg 24%
    13:00 +17°C° 0 mm 6 mps 725 mmHg 23%
    14:00 +18°C° 0 mm 7 mps 724 mmHg 22%
    15:00 +17°C° 0 mm 6 mps 723 mmHg 24%
    16:00 +16°C° 0 mm 6 mps 722 mmHg 26%
    17:00 +15°C° 0 mm 6 mps 722 mmHg 29%
    18:00 +14°C° 0 mm 6 mps 722 mmHg 31%
    19:00 +12°C° 0 mm 5 mps 722 mmHg 34%
    20:00 +10°C° 0 mm 5 mps 722 mmHg 37%
    21:00 +10°C° 0 mm 5 mps 722 mmHg 39%
    22:00 +9°C° 0 mm 5 mps 722 mmHg 41%
    23:00 +9°C° 0 mm 5 mps 721 mmHg 43%

    22 July, Sunday

    Time Temperature Precipitation Wind Pressure Humidity
    00:00 +8°C° 0 mm 5 mps 721 mmHg 46%
    01:00 +8°C° 0 mm 5 mps 721 mmHg 48%
    02:00 +8°C° 0 mm 5 mps 720 mmHg 50%
    03:00 +8°C° 0 mm 5 mps 720 mmHg 51%
    04:00 +7°C° 0 mm 4 mps 720 mmHg 52%
    05:00 +7°C° 0 mm 4 mps 720 mmHg 52%
    06:00 +8°C° 0 mm 3 mps 721 mmHg 53%
    07:00 +8°C° 0 mm 2 mps 721 mmHg 54%
    08:00 +8°C° 0 mm 2 mps 722 mmHg 55%
    09:00 +10°C° 0 mm 2 mps 722 mmHg 49%
    10:00 +13°C° 0 mm 2 mps 722 mmHg 43%
    11:00 +15°C° 0 mm 2 mps 723 mmHg 36%
    12:00 +16°C° 0 mm 3 mps 723 mmHg 34%
    13:00 +17°C° 0 mm 4 mps 722 mmHg 31%
    14:00 +17°C° 0 mm 5 mps 722 mmHg 29%
    15:00 +16°C° 0 mm 5 mps 722 mmHg 31%
    16:00 +16°C° 0 mm 5 mps 723 mmHg 33%
    17:00 +15°C° 0 mm 5 mps 723 mmHg 35%
    18:00 +13°C° 0 mm 5 mps 724 mmHg 41%
    19:00 +12°C° 0 mm 5 mps 725 mmHg 47%
    20:00 +9°C° 0 mm 6 mps 726 mmHg 53%
    21:00 +9°C° 0 mm 6 mps 727 mmHg 54%
    22:00 +8°C° 0 mm 6 mps 728 mmHg 55%
    23:00 +8°C° 0 mm 6 mps 728 mmHg 56%

    23 July, Monday

    Time Temperature Precipitation Wind Pressure Humidity
    00:00 +7°C° 0 mm 6 mps 729 mmHg 52%
    01:00 +7°C° 0 mm 5 mps 729 mmHg 48%
    02:00 +6°C° 0 mm 5 mps 730 mmHg 44%
    03:00 +6°C° 0 mm 5 mps 730 mmHg 44%
    04:00 +5°C° 0 mm 5 mps 730 mmHg 43%
    05:00 +5°C° 0 mm 5 mps 731 mmHg 43%
    06:00 +3°C° 0 mm 5 mps 731 mmHg 45%
    07:00 +3°C° 0 mm 5 mps 732 mmHg 48%
    08:00 +3°C° 0 mm 5 mps 733 mmHg 50%
    09:00 +5°C° 0 mm 5 mps 733 mmHg 46%
    10:00 +7°C° 0 mm 5 mps 734 mmHg 43%
    11:00 +8°C° 0 mm 5 mps 734 mmHg 39%
    12:00 +9°C° 0 mm 5 mps 734 mmHg 37%
    13:00 +10°C° 0 mm 5 mps 734 mmHg 35%
    14:00 +11°C° 0 mm 4 mps 733 mmHg 33%
    15:00 +11°C° 0 mm 4 mps 733 mmHg 35%
    16:00 +10°C° 0 mm 4 mps 733 mmHg 37%
    17:00 +9°C° 0 mm 3 mps 733 mmHg 38%
    18:00 +8°C° 0 mm 3 mps 734 mmHg 42%
    19:00 +7°C° 0 mm 2 mps 735 mmHg 46%
    20:00 +6°C° 0 mm 2 mps 735 mmHg 50%
    21:00 +6°C° 0 mm 1 mps 735 mmHg 52%
    22:00 +6°C° 0 mm 1 mps 736 mmHg 53%
    23:00 +5°C° 0 mm 1 mps 736 mmHg 55%
    Show more